GW5499 Weather Reports


time (UTC)temp
F
wind
direction
speed
knots
gust
knots
rain 1hr
in
rain 24hr
in
rain mn
in
humidity
%
barometer
mb
20260505214505 82 206 5.2 14.8 0.00 0.00 0.00 71 1004.9
20260505213010 82 194 4.3 11.3 0.00 0.00 0.00 71 1004.9
20260505211514 82 151 7.0 13.0 0.00 0.00 0.00 71 1004.9
20260505210015 83 200 5.2 13.0 0.00 0.00 0.00 70 1005.0
20260505204502 82 188 3.5 10.4 0.00 0.00 0.00 72 1005.1
20260505203003 82 209 4.3 12.2 0.00 0.00 0.00 71 1005.2
20260505201513 81 192 7.0 13.0 0.00 0.00 0.00 72 1005.3
20260505200015 81 230 3.5 13.9 0.00 0.00 0.00 73 1005.3
20260505184517 79 161 3.5 12.2 0.00 0.00 0.00 73 1005.6
20260505180043 79 215 7.8 17.4 0.00 0.00 0.00 71 1006.0
20260505174537 79 198 5.2 14.8 0.00 0.00 0.00 73 1006.2
20260505173021 79 239 6.1 19.1 0.00 0.00 0.00 73 1006.4
20260505171530 78 201 5.2 15.6 0.00 0.00 0.00 74 1006.1
20260505170007 77 201 6.1 19.1 0.00 0.00 0.00 76 1006.1
20260505164527 77 180 7.0 19.1 0.00 0.00 0.00 76 1006.1
20260505163033 76 176 8.7 14.8 0.00 0.00 0.00 76 1006.0
20260505161522 76 189 5.2 16.5 0.00 0.00 0.00 77 1006.1
20260505153016 75 196 7.8 15.6 0.00 0.00 0.00 78 1006.3
20260505151522 74 213 7.8 20.0 0.00 0.00 0.00 79 1006.1
20260505124525 70 209 4.3 13.0 0.00 0.00 0.00 85 1005.6
20260505123023 70 186 2.6 13.9 0.00 0.00 0.00 85 1005.5
20260505121516 70 202 3.5 12.2 0.00 0.00 0.00 85 1005.5
20260505120024 70 136 3.5 12.2 0.00 0.00 0.00 85 1005.4
20260505114523 70 172 1.7 12.2 0.00 0.00 0.00 85 1005.3
20260505113024 70 205 3.5 13.9 0.00 0.00 0.00 84 1005.2
20260505111519 70 142 3.5 12.2 0.00 0.00 0.00 84 1005.2
20260505101546 70 220 6.1 13.0 0.00 0.00 0.00 82 1005.4
20260505100035 70 209 5.2 9.6 0.00 0.00 0.00 82 1005.3
20260505094527 70 211 5.2 13.0 0.00 0.00 0.00 82 1005.4
20260505093025 70 155 1.7 11.3 0.00 0.00 0.00 82 1005.3
20260505091528 70 98 3.5 14.8 0.00 0.00 0.00 82 1005.3
20260505090012 70 211 3.5 13.9 0.00 0.00 0.00 82 1005.2
20260505084519 70 173 5.2 15.6 0.00 0.00 0.00 82 1005.2
20260505083004 70 242 4.3 14.8 0.00 0.00 0.00 82 1005.4
20260505081510 70 197 3.5 12.2 0.00 0.00 0.00 81 1005.6
20260505080013 70 157 4.3 11.3 0.00 0.00 0.00 81 1005.8
20260505074517 70 96 5.2 13.0 0.00 0.00 0.00 81 1005.7
20260505073012 70 198 5.2 20.0 0.00 0.00 0.00 80 1005.8
20260505071504 70 204 3.5 15.6 0.00 0.00 0.00 80 1005.9
20260505070014 71 186 3.5 12.2 0.00 0.00 0.00 79 1006.1
20260505064518 71 217 5.2 12.2 0.00 0.00 0.00 78 1006.4
20260505063018 71 186 5.2 10.4 0.00 0.00 0.00 77 1006.6
20260505061512 71 220 4.3 13.0 0.00 0.00 0.00 77 1006.6
20260505060008 72 200 6.1 11.3 0.00 0.00 0.00 76 1006.5
20260505054511 72 205 7.0 13.9 0.00 0.00 0.00 75 1006.7
20260505053030 72 169 5.2 13.9 0.00 0.00 0.00 75 1006.8
20260505051537 72 173 4.3 13.9 0.00 0.00 0.00 75 1006.9
20260505041523 71 159 2.6 8.7 0.00 0.00 0.00 74 1007.3
20260505040025 71 216 2.6 6.1 0.00 0.00 0.00 73 1007.3
20260505034509 71 190 2.6 7.8 0.00 0.00 0.00 73 1007.4
20260505033016 72 148 1.7 7.0 0.00 0.00 0.00 72 1007.5
20260505031521 72 119 2.6 8.7 0.00 0.00 0.00 71 1007.5
20260505030025 72 175 2.6 7.8 0.00 0.00 0.00 71 1007.5
20260505024503 72 147 3.5 7.0 0.00 0.00 0.00 70 1007.4
20260505023014 72 117 1.7 7.8 0.00 0.00 0.00 70 1007.2
20260505021516 73 178 1.7 6.1 0.00 0.00 0.00 68 1007.3
20260505020028 73 146 3.5 7.8 0.00 0.00 0.00 67 1007.4
20260505014526 73 184 1.7 6.1 0.00 0.00 0.00 67 1007.3
20260505013009 74 160 0.9 7.8 0.00 0.00 0.00 67 1007.2
20260505011520 74 140 0.9 6.1 0.00 0.00 0.00 65 1007.0
20260505010030 75 215 2.6 10.4 0.00 0.00 0.00 64 1007.2
20260505004524 75 171 3.5 12.2 0.00 0.00 0.00 63 1007.1
20260505003025 76 137 2.6 9.6 0.00 0.00 0.00 63 1007.2
20260505001512 76 164 2.6 6.1 0.00 0.00 0.00 60 1007.1
20260505000033 76 149 3.5 8.7 0.00 0.00 0.00 59 1007.2
20260504234524 77 157 3.5 16.5 0.00 0.00 0.00 57 1007.3
20260504233025 78 178 4.3 9.6 0.00 0.00 0.00 56 1007.5
20260504231511 78 232 2.6 14.8 0.00 0.00 0.00 55 1007.8
20260504230020 78 139 3.5 10.4 0.00 0.00 0.00 55 1007.9
20260504224523 79 165 5.2 13.0 0.00 0.00 0.00 54 1008.0
20260504223024 79 166 5.2 14.8 0.00 0.00 0.00 54 1008.1
20260504221539 79 196 5.2 13.0 0.00 0.00 0.00 53 1008.1
20260504220014 79 132 6.1 14.8 0.00 0.00 0.00 52 1008.6